Dewpoint
67 66 68 68 67 65 65 66 73 74 73 71 71 71 68 69 69 65 66 71 72 71 67 66 68 71 72 72 73 73 72 73 73 71 73 73 73 73 73 72 71 72 72
74 73 73 72 66 66 65 67 75 71 72 74 70 70 73 71 71 71 66 68 69 69 71 71 69 70 71 72 73 73 71 73 73 72 72 73 73 73 73 72 71 71 72
74 74 75 73 66 67 68 68 72 74 73 72 70 70 73 72 73 73 72 65 68 70 70 72 72 73 72 73 73 73 74 74 73 73 73 73 74 73 73 73 73 73 72
74 74 75 71 67 67 66 68 74 75 74 74 72 71 71 74 73 73 73 72 66 65 70 72 73 73 72 73 73 73 74 74 74 74 74 73 73 73 73 73 73 74 74
74 73 74 70 70 68 69 68 73 73 73 70 72 71 71 70 72 73 70 71 70 68 67 70 72 73 71 73 73 73 73 74 75 75 75 75 74 74 74 74 74 75 75
75 73 75 72 71 68 68 68 72 71 70 70 68 71 73 70 71 72 71 71 71 70 68 71 68 67 73 72 74 73 73 74 74 75 75 75 75 75 75 74 75 75 75
73 74 72 74 72 71 69 71 73 72 67 69 70 69 70 71 71 71 70 73 70 68 68 68 70 66 67 73 74 74 73 74 75 75 75 74 75 75 75 74 74 74 75
74 74 74 75 75 68 71 71 71 74 68 68 73 68 69 72 73 71 70 69 69 68 67 67 68 69 68 68 69 73 74 74 74 75 75 75 75 75 75 75 75 75 75
73 74 74 74 75 72 67 70 70 70 72 70 71 72 64 64 71 73 70 69 69 74 68 68 67 67 68 66 68 70 73 73 74 75 75 76 75 75 75 75 75 75 75
72 73 73 74 75 70 70 69 68 68 70 73 72 73 70 68 70 65 73 72 68 72 68 67 67 67 68 68 69 70 73 73 74 75 75 75 75 75 75 75 75 75 75
73 72 73 74 74 73 71 70 69 71 67 70 69 71 70 71 68 70 68 67 68 68 68 68 67 67 69 69 68 69 72 73 73 73 75 75 75 76 76 76 75 75 75
70 73 73 73 73 74 74 71 72 72 70 69 72 70 71 72 71 72 63 64 63 66 67 68 68 67 68 69 71 73 73 73 72 73 73 74 75 75 76 76 76 76 76
72 73 74 73 76 73 74 74 72 72 71 70 71 72 75 68 68 67 64 64 62 64 65 66 68 68 67 68 69 73 74 73 72 71 71 72 73 74 74 75 75 76 76
74 73 73 73 72 73 73 72 70 70 71 70 71 71 77 74 68 66 66 67 70 73 64 67 65 66 67 68 71 74 71 71 71 71 70 71 71 72 73 73 74 74 74
73 74 74 73 73 74 74 75 71 71 71 71 71 72 71 77 68 67 66 66 64 68 71 67 65 69 68 69 71 70 71 71 71 70 70 69 70 71 71 71 72 72 73
74 75 75 74 74 73 74 75 75 73 72 70 68 72 72 69 69 67 66 66 65 63 60 63 65 68 70 69 71 72 71 71 71 70 69 69 69 70 70 70 71 71 71
75 74 75 75 74 74 74 75 75 74 73 73 72 73 73 73 68 67 68 68 66 65 63 61 64 68 73 73 70 71 71 70 68 69 69 68 68 68 69 69 69 70 70
74 74 75 74 73 73 74 74 73 72 73 72 73 73 71 71 72 72 69 71 72 68 65 68 68 66 72 72 72 73 70 65 66 68 68 67 67 67 67 67 67 67 67
70 68 71 73 73 73 73 73 73 73 73 73 72 73 73 72 74 76 75 73 73 74 73 70 67 72 68 68 71 72 72 71 68 69 67 67 66 66 66 65 64 64 63
69 69 69 70 70 70 70 70 70 70 71 71 72 73 72 72 73 73 74 74 74 75 75 74 74 74 73 76 76 74 73 76 73 68 68 67 67 67 66 64 64 64 62
69 69 69 69 69 66 62 68 68 67 68 67 67 68 69 68 67 67 68 73 72 72 71 70 69 68 66 68 73 73 72 71 75 70 69 70 71 70 69 67 68 67 64
68 68 66 66 66 60 63 64 65 64 65 66 66 66 68 68 68 66 66 66 67 69 68 65 62 62 66 64 61 61 60 59 58 60 62 61 62 61 61 63 66 66 64
67 66 66 66 66 65 61 62 64 62 63 64 65 66 63 61 66 66 66 65 65 66 65 67 66 64 64 65 66 66 66 63 62 62 64 59 60 59 60 60 62 64 64
65 64 64 65 64 59 56 57 59 63 63 62 63 63 63 65 61 61 64 64 64 65 65 64 66 65 66 66 68 67 68 67 65 63 66 60 61 60 60 59 62 64 63
64 64 64 64 63 61 54 54 59 61 60 61 62 62 61 61 55 55 59 61 62 62 61 62 61 60 59 60 60 60 59 58 57 57 59 57 57 57 58 60 61 62 61
64 62 63 63 58 62 52 53 55 56 58 56 60 61 56 57 54 54 59 59 60 60 60 61 61 61 61 63 61 64 61 58 57 55 60 61 59 60 60 62 61 63 69
Lifted_Index
-2 -2 -2 -1 -0 -0 -1 -2 -3 -3 -3 -3 -3 -3 -3 -3 -3 -2 -1 -1 -1 -1 -1 -2 -2 -4 -4 -5 -5 -5 -5 -5 -5 -5 -5 -5 -5 -5 -5 -4 -4 -5 -5
-3 -2 -2 -2 -1 -0 -1 -2 -3 -3 -3 -3 -3 -3 -3 -3 -3 -3 -2 -1 -1 -1 -2 -2 -3 -4 -4 -5 -5 -5 -5 -5 -5 -5 -5 -5 -5 -5 -5 -5 -5 -5 -5
-3 -3 -3 -2 -1 -1 -1 -2 -3 -3 -3 -3 -3 -4 -4 -4 -4 -3 -3 -2 -1 -1 -2 -3 -3 -4 -4 -5 -5 -5 -5 -5 -5 -5 -5 -5 -5 -5 -5 -5 -5 -5 -5
-4 -3 -3 -3 -2 -1 -1 -2 -3 -4 -3 -3 -4 -4 -4 -4 -4 -4 -3 -3 -2 -2 -2 -3 -3 -4 -4 -5 -5 -5 -5 -5 -5 -5 -5 -5 -5 -5 -5 -5 -5 -5 -5
-4 -4 -3 -3 -3 -2 -2 -2 -3 -3 -3 -3 -4 -4 -5 -4 -4 -4 -4 -3 -3 -3 -3 -3 -3 -3 -4 -4 -5 -5 -5 -5 -5 -5 -5 -5 -5 -5 -5 -5 -5 -5 -6
-4 -4 -4 -3 -3 -2 -2 -2 -3 -3 -3 -3 -4 -4 -4 -4 -4 -4 -4 -4 -3 -3 -3 -3 -3 -3 -3 -4 -5 -5 -5 -5 -5 -5 -5 -5 -5 -5 -5 -5 -5 -5 -5
-4 -4 -4 -3 -3 -2 -2 -2 -3 -3 -3 -3 -3 -4 -4 -4 -4 -4 -4 -4 -4 -3 -3 -3 -3 -3 -3 -4 -4 -5 -5 -5 -6 -6 -5 -5 -5 -5 -5 -5 -5 -5 -5
-4 -4 -4 -3 -3 -2 -2 -2 -3 -3 -3 -3 -3 -3 -3 -3 -4 -4 -4 -4 -4 -3 -3 -3 -3 -3 -3 -3 -4 -4 -5 -5 -5 -6 -6 -6 -6 -5 -5 -5 -5 -5 -5
-3 -3 -3 -3 -2 -2 -2 -2 -2 -3 -3 -3 -3 -3 -3 -3 -3 -4 -4 -4 -4 -4 -4 -3 -3 -3 -3 -3 -3 -3 -4 -4 -5 -5 -6 -6 -6 -6 -5 -5 -5 -5 -5
-3 -3 -3 -3 -2 -2 -2 -2 -2 -2 -3 -3 -3 -4 -3 -3 -3 -4 -4 -4 -4 -4 -4 -4 -3 -3 -3 -3 -3 -3 -3 -4 -4 -5 -5 -6 -6 -6 -6 -6 -6 -6 -5
-3 -3 -3 -3 -2 -2 -2 -2 -2 -2 -3 -3 -3 -4 -4 -4 -4 -4 -3 -3 -4 -4 -4 -4 -4 -4 -4 -4 -4 -4 -4 -4 -4 -4 -5 -5 -6 -6 -6 -6 -6 -6 -6
-4 -4 -4 -3 -3 -3 -3 -3 -3 -3 -3 -3 -3 -4 -4 -4 -4 -4 -3 -3 -3 -4 -4 -4 -4 -4 -4 -4 -4 -4 -4 -4 -4 -4 -4 -5 -5 -5 -6 -6 -6 -6 -6
-4 -4 -4 -4 -4 -3 -3 -3 -3 -3 -3 -3 -3 -4 -4 -4 -4 -3 -3 -3 -3 -4 -4 -4 -4 -4 -4 -5 -5 -5 -4 -4 -4 -3 -3 -4 -4 -4 -5 -5 -6 -6 -6
-5 -5 -4 -4 -4 -4 -4 -4 -4 -3 -3 -4 -4 -4 -4 -4 -4 -3 -3 -3 -4 -4 -4 -4 -4 -4 -4 -5 -5 -5 -5 -4 -4 -3 -3 -3 -3 -3 -4 -4 -4 -5 -5
-6 -6 -5 -5 -5 -5 -4 -4 -4 -4 -4 -4 -4 -4 -4 -4 -4 -3 -3 -3 -3 -3 -3 -3 -4 -4 -5 -5 -5 -5 -5 -5 -4 -4 -4 -3 -3 -3 -3 -3 -3 -3 -4
-6 -6 -6 -6 -5 -5 -5 -5 -5 -4 -4 -4 -4 -4 -4 -4 -4 -4 -3 -3 -3 -3 -3 -3 -3 -4 -5 -5 -5 -5 -5 -5 -5 -4 -4 -3 -3 -2 -2 -2 -2 -2 -2
-6 -6 -7 -6 -6 -5 -5 -5 -5 -5 -5 -4 -4 -4 -4 -4 -4 -4 -4 -3 -3 -3 -3 -3 -3 -4 -4 -5 -5 -5 -5 -4 -4 -4 -3 -3 -2 -2 -2 -2 -2 -1 -1
-6 -6 -6 -6 -6 -5 -5 -5 -5 -5 -5 -5 -4 -4 -4 -4 -4 -4 -4 -4 -4 -4 -3 -3 -3 -4 -4 -5 -5 -5 -4 -4 -4 -3 -3 -3 -2 -2 -2 -2 -1 -1 -0
-4 -4 -5 -5 -5 -5 -4 -4 -4 -4 -4 -5 -5 -4 -4 -4 -4 -4 -4 -4 -4 -4 -4 -4 -4 -4 -4 -4 -5 -5 -5 -4 -4 -4 -3 -3 -3 -2 -2 -2 -1 -1 -0
-3 -3 -3 -3 -3 -3 -3 -3 -3 -3 -3 -4 -4 -4 -4 -3 -3 -3 -4 -4 -4 -4 -4 -4 -4 -4 -4 -4 -4 -4 -5 -5 -4 -4 -4 -3 -3 -3 -3 -2 -2 -1 -1
-2 -2 -2 -2 -1 -0 0 -0 -1 -1 -1 -1 -2 -2 -2 -1 -1 -1 -2 -2 -2 -3 -3 -3 -3 -3 -3 -3 -3 -3 -3 -3 -3 -3 -2 -3 -3 -3 -3 -2 -2 -2 -2
-1 -1 -0 -0 0 2 3 3 2 1 1 1 1 0 0 0 0 0 0 0 -0 -1 -1 -1 -1 -1 -1 -1 -1 -1 -1 -1 -1 -1 -0 -1 -1 -1 -1 -1 -2 -2 -2
0 1 1 1 2 3 4 4 4 3 2 2 2 2 2 2 2 2 2 2 2 1 1 0 0 0 0 0 0 0 0 0 0 0 0 1 1 1 1 1 0 -1 -1
2 2 2 2 3 4 5 6 5 4 4 4 3 3 3 3 4 4 4 3 3 2 2 2 2 2 2 1 1 1 1 1 1 1 1 1 1 1 1 1 1 0 -0
2 2 3 3 4 5 6 6 6 6 5 5 5 5 5 5 6 6 6 5 4 3 3 3 3 3 3 3 3 3 3 3 2 2 2 2 1 1 1 1 0 0 0
2 3 3 4 4 5 6 7 7 6 6 5 5 6 6 7 7 7 7 6 5 4 4 4 4 4 4 4 4 4 3 3 3 3 2 2 1 1 1 0 0 -0 -0